Previsão horária em Abraimovka

Hoje, 18 Maio, Terça-feira

Tempo Temperatura Precipitação Vento Pressão Humidade
00:00 +16°C° 0 mm 2 m/s 734 mmHg 96%
01:00 +16°C° 0 mm 2 m/s 733 mmHg 96%
02:00 +14°C° 0 mm 3 m/s 733 mmHg 97%
03:00 +15°C° 0 mm 4 m/s 733 mmHg 97%
04:00 +15°C° 0 mm 4 m/s 733 mmHg 97%
05:00 +15°C° 0 mm 5 m/s 733 mmHg 97%
06:00 +16°C° 0 mm 5 m/s 733 mmHg 95%
07:00 +16°C° 0 mm 5 m/s 734 mmHg 94%
08:00 +16°C° 0 mm 5 m/s 734 mmHg 92%
09:00 +17°C° 0 mm 5 m/s 734 mmHg 88%
10:00 +17°C° 0 mm 5 m/s 734 mmHg 84%
11:00 +19°C° 0 mm 6 m/s 734 mmHg 80%
12:00 +19°C° 1 mm 5 m/s 734 mmHg 82%
13:00 +17°C° 1 mm 5 m/s 734 mmHg 84%
14:00 +18°C° 1 mm 4 m/s 734 mmHg 86%
15:00 +17°C° 0.3 mm 5 m/s 734 mmHg 87%
16:00 +17°C° 0.3 mm 5 m/s 733 mmHg 87%
17:00 +16°C° 0.3 mm 5 m/s 733 mmHg 88%
18:00 +16°C° 0.1 mm 5 m/s 733 mmHg 89%
19:00 +15°C° 0.1 mm 4 m/s 733 mmHg 90%
20:00 +15°C° 0.1 mm 4 m/s 733 mmHg 91%
21:00 +15°C° 0 mm 4 m/s 733 mmHg 92%
22:00 +14°C° 0 mm 4 m/s 733 mmHg 93%
23:00 +14°C° 0 mm 4 m/s 733 mmHg 94%

Amanhã, 19 Maio, Quarta-feira

Tempo Temperatura Precipitação Vento Pressão Humidade
00:00 +13°C° 0 mm 4 m/s 733 mmHg 95%
01:00 +13°C° 0 mm 4 m/s 733 mmHg 96%
02:00 +13°C° 0 mm 4 m/s 733 mmHg 97%
03:00 +12°C° 0 mm 4 m/s 733 mmHg 97%
04:00 +12°C° 0 mm 4 m/s 733 mmHg 97%
05:00 +12°C° 0 mm 4 m/s 733 mmHg 97%
06:00 +13°C° 0 mm 4 m/s 734 mmHg 92%
07:00 +15°C° 0 mm 5 m/s 734 mmHg 88%
08:00 +16°C° 0 mm 5 m/s 734 mmHg 83%
09:00 +17°C° 0.1 mm 5 m/s 735 mmHg 78%
10:00 +19°C° 0.1 mm 5 m/s 735 mmHg 72%
11:00 +20°C° 0.1 mm 6 m/s 735 mmHg 67%
12:00 +20°C° 0.2 mm 5 m/s 735 mmHg 67%
13:00 +20°C° 0.2 mm 5 m/s 735 mmHg 68%
14:00 +20°C° 0.2 mm 5 m/s 735 mmHg 69%
15:00 +19°C° 0.4 mm 4 m/s 735 mmHg 74%
16:00 +18°C° 0.4 mm 4 m/s 736 mmHg 79%
17:00 +17°C° 0.4 mm 3 m/s 736 mmHg 84%
18:00 +16°C° 0.2 mm 3 m/s 736 mmHg 88%
19:00 +14°C° 0.2 mm 3 m/s 736 mmHg 91%
20:00 +13°C° 0.2 mm 4 m/s 736 mmHg 95%
21:00 +12°C° 0.3 mm 4 m/s 736 mmHg 95%
22:00 +12°C° 0.3 mm 4 m/s 736 mmHg 96%
23:00 +11°C° 0.3 mm 4 m/s 736 mmHg 97%

Depois de amanhã, 20 Maio, Quinta-feira

Tempo Temperatura Precipitação Vento Pressão Humidade
00:00 +11°C° 0.3 mm 4 m/s 736 mmHg 97%
01:00 +10°C° 0.3 mm 5 m/s 736 mmHg 97%
02:00 +10°C° 0.3 mm 5 m/s 736 mmHg 97%
03:00 +10°C° 0.2 mm 5 m/s 735 mmHg 97%
04:00 +10°C° 0.2 mm 6 m/s 735 mmHg 97%
05:00 +10°C° 0.2 mm 6 m/s 735 mmHg 97%
06:00 +10°C° 0.4 mm 6 m/s 735 mmHg 97%
07:00 +10°C° 0.4 mm 5 m/s 734 mmHg 97%
08:00 +10°C° 0.4 mm 5 m/s 734 mmHg 97%
09:00 +12°C° 0.8 mm 5 m/s 734 mmHg 97%
10:00 +12°C° 0.8 mm 4 m/s 734 mmHg 97%
11:00 +12°C° 0.8 mm 4 m/s 734 mmHg 96%
12:00 +12°C° 1.1 mm 3 m/s 733 mmHg 96%
13:00 +12°C° 1.1 mm 3 m/s 733 mmHg 95%
14:00 +12°C° 1.1 mm 3 m/s 733 mmHg 94%
15:00 +12°C° 0.5 mm 4 m/s 733 mmHg 94%
16:00 +11°C° 0.5 mm 4 m/s 733 mmHg 94%
17:00 +10°C° 0.5 mm 5 m/s 733 mmHg 94%
18:00 +9°C° 0.3 mm 5 m/s 733 mmHg 95%
19:00 +9°C° 0.3 mm 5 m/s 733 mmHg 95%
20:00 +8°C° 0.3 mm 5 m/s 733 mmHg 96%
21:00 +8°C° 0.1 mm 5 m/s 733 mmHg 96%
22:00 +8°C° 0.1 mm 4 m/s 733 mmHg 96%
23:00 +8°C° 0.1 mm 4 m/s 733 mmHg 97%

21 Maio, Sexta-feira

Tempo Temperatura Precipitação Vento Pressão Humidade
00:00 +8°C° 0.2 mm 5 m/s 733 mmHg 96%
01:00 +7°C° 0.2 mm 5 m/s 733 mmHg 96%
02:00 +7°C° 0.2 mm 5 m/s 733 mmHg 96%
03:00 +7°C° 0.5 mm 6 m/s 733 mmHg 95%
04:00 +6°C° 0.5 mm 7 m/s 733 mmHg 95%
05:00 +6°C° 0.5 mm 7 m/s 733 mmHg 94%
06:00 +6°C° 0.2 mm 8 m/s 734 mmHg 94%
07:00 +5°C° 0.2 mm 8 m/s 734 mmHg 93%
08:00 +5°C° 0.2 mm 8 m/s 735 mmHg 93%
09:00 +5°C° 0.3 mm 9 m/s 735 mmHg 93%
10:00 +5°C° 0.3 mm 9 m/s 736 mmHg 93%
11:00 +5°C° 0.3 mm 9 m/s 737 mmHg 92%
12:00 +6°C° 0.4 mm 8 m/s 738 mmHg 90%
13:00 +8°C° 0.4 mm 7 m/s 739 mmHg 88%
14:00 +8°C° 0.4 mm 7 m/s 739 mmHg 86%
15:00 +10°C° 0 mm 6 m/s 740 mmHg 81%
16:00 +11°C° 0 mm 6 m/s 740 mmHg 77%
17:00 +13°C° 0 mm 6 m/s 741 mmHg 72%
18:00 +12°C° 0 mm 5 m/s 741 mmHg 76%
19:00 +11°C° 0 mm 4 m/s 741 mmHg 80%
20:00 +9°C° 0 mm 3 m/s 742 mmHg 84%
21:00 +9°C° 0 mm 3 m/s 742 mmHg 87%
22:00 +8°C° 0 mm 3 m/s 742 mmHg 89%
23:00 +7°C° 0 mm 3 m/s 742 mmHg 92%

22 Maio, Sábado

Tempo Temperatura Precipitação Vento Pressão Humidade
00:00 +7°C° 0 mm 3 m/s 743 mmHg 91%
01:00 +7°C° 0 mm 3 m/s 743 mmHg 90%
02:00 +7°C° 0 mm 3 m/s 743 mmHg 89%
03:00 +7°C° 0 mm 2 m/s 743 mmHg 89%
04:00 +7°C° 0 mm 2 m/s 743 mmHg 89%
05:00 +6°C° 0 mm 2 m/s 743 mmHg 89%
06:00 +8°C° 0 mm 2 m/s 744 mmHg 84%
07:00 +9°C° 0 mm 2 m/s 744 mmHg 78%
08:00 +10°C° 0 mm 3 m/s 744 mmHg 72%
09:00 +12°C° 0 mm 3 m/s 744 mmHg 67%
10:00 +13°C° 0 mm 4 m/s 744 mmHg 61%
11:00 +14°C° 0 mm 4 m/s 744 mmHg 56%
12:00 +14°C° 0 mm 4 m/s 744 mmHg 55%
13:00 +14°C° 0 mm 3 m/s 744 mmHg 54%
14:00 +16°C° 0 mm 3 m/s 744 mmHg 54%
15:00 +16°C° 0 mm 3 m/s 744 mmHg 55%
16:00 +16°C° 0 mm 3 m/s 744 mmHg 57%
17:00 +16°C° 0 mm 2 m/s 744 mmHg 58%
18:00 +15°C° 0 mm 2 m/s 744 mmHg 63%
19:00 +12°C° 0 mm 3 m/s 744 mmHg 67%
20:00 +11°C° 0 mm 3 m/s 744 mmHg 72%
21:00 +10°C° 0 mm 3 m/s 744 mmHg 73%
22:00 +9°C° 0 mm 3 m/s 745 mmHg 75%
23:00 +9°C° 0 mm 3 m/s 745 mmHg 76%

23 Maio, Domingo

Tempo Temperatura Precipitação Vento Pressão Humidade
00:00 +8°C° 0 mm 3 m/s 745 mmHg 78%
01:00 +8°C° 0 mm 3 m/s 745 mmHg 80%
02:00 +7°C° 0 mm 2 m/s 745 mmHg 82%
03:00 +8°C° 0 mm 2 m/s 745 mmHg 82%
04:00 +8°C° 0 mm 2 m/s 745 mmHg 83%
05:00 +8°C° 0 mm 2 m/s 745 mmHg 84%
06:00 +9°C° 0 mm 3 m/s 745 mmHg 80%
07:00 +11°C° 0 mm 3 m/s 745 mmHg 76%
08:00 +13°C° 0 mm 4 m/s 745 mmHg 73%
09:00 +14°C° 0 mm 4 m/s 745 mmHg 69%
10:00 +15°C° 0 mm 4 m/s 745 mmHg 65%
11:00 +17°C° 0 mm 4 m/s 745 mmHg 62%
12:00 +17°C° 0 mm 4 m/s 745 mmHg 60%
13:00 +18°C° 0 mm 4 m/s 745 mmHg 58%
14:00 +18°C° 0 mm 4 m/s 744 mmHg 57%
15:00 +18°C° 0 mm 4 m/s 744 mmHg 60%
16:00 +18°C° 0 mm 3 m/s 744 mmHg 64%
17:00 +18°C° 0 mm 3 m/s 744 mmHg 67%
18:00 +17°C° 0 mm 3 m/s 744 mmHg 72%
19:00 +16°C° 0 mm 2 m/s 744 mmHg 76%
20:00 +14°C° 0 mm 2 m/s 744 mmHg 81%
21:00 +14°C° 0 mm 2 m/s 744 mmHg 82%
22:00 +13°C° 0 mm 2 m/s 744 mmHg 83%
23:00 +13°C° 0 mm 2 m/s 744 mmHg 85%
Mostrar mais

Necessitamos do seu Consentimento

A Meteoprog e os seus Fornecedores de Serviços podem armazenar e aceder a dados pessoais como cookies, identificadores do dispositivo ou outras tecnologias semelhantes existentes no seu dispositivo e processar estes dados para personalizar conteúdos e anúncios, assim como funcionalidades nas redes sociais e análise de tráfego.

  • Armazenar e/ou aceder a informações no seu dispositivo

    Os cookies, identificadores do dispositivo ou outras informações podem ser armazenados ou acedidos no seu dispositivo, para os fins acima indicados.

  • Anúncios e conteúdos personalizados, medição de anúncios e conteúdos, dados sobre o público-alvo e desenvolvimento de produtos

    Os anúncios e os conteúdos podem ser personalizados com base num perfil. Podem ser adicionados dados adicionais para uma maior personalização dos anúncios e dos conteúdos. A eficácia dos anúncios e dos conteúdos pode ser medida. Podem ser obtidas informações sobre o público que visualizou os anúncios e os conteúdos. Estes dados podem ser usados para desenvolver ou melhorar sistemas, softwares ou a experiência do utilizador.

Ao clicar em "Eu concordo”, permitirá o uso de cookies, identificadores do dispositivo e web beacons mencionados ou outras tecnologias semelhantes. As configurações do navegador do seu dispositivo podem ser alteradas.

Para certos fins, podem ser invocados interesses legítimos ao invés de consentimento. Pode ler mais informação sobre este assunto na nossa Política de Privacidade e Cookies.